Temp
80 80 77 77 79 71 74 73 72 74 75 74 58 59 59 60 62 61 65 65 70 74 76 74 72 71 73 73 74 76 77 78 77 76 77 78 78 79 78 78 78 77 77 76 77 78 79 79 79 79 78 79 80 79 78 78 77 77 78 78 78 77 77
76 77 80 78 75 80 76 71 74 72 75 77 70 62 58 61 58 60 61 64 67 65 67 72 71 71 73 71 72 75 76 77 75 76 76 77 78 79 79 78 77 77 77 77 78 79 80 80 80 78 78 79 80 80 79 79 78 78 78 78 77 77 76
77 76 80 81 81 78 81 79 80 75 67 66 62 64 55 56 56 60 60 60 61 65 70 74 74 73 74 70 71 73 73 75 75 76 77 77 79 79 77 77 76 76 77 77 77 79 81 80 78 79 80 79 78 78 78 79 78 79 78 78 77 76 76
75 79 81 72 75 79 78 80 77 73 77 68 64 66 66 66 57 55 60 59 65 69 72 76 77 77 75 72 70 72 75 76 76 76 77 77 77 77 77 77 77 77 78 79 80 80 80 78 78 79 80 81 81 79 76 77 77 77 76 76 76 76 76
76 73 77 77 77 72 72 76 72 74 70 70 72 67 65 64 59 58 59 59 66 73 74 74 78 78 75 74 72 72 74 77 77 77 78 77 78 77 77 77 77 77 78 80 80 80 80 79 79 81 82 81 81 80 78 78 77 77 77 77 77 77 77
72 76 73 73 77 80 79 77 75 76 68 66 63 60 63 63 63 53 56 58 69 77 70 73 78 78 76 76 76 75 76 77 77 77 78 78 78 78 77 78 79 79 78 78 78 78 78 78 80 81 80 79 79 78 80 80 81 80 79 77 77 77 76
75 72 74 70 74 74 75 79 78 78 76 74 69 58 60 62 62 63 62 59 66 76 69 70 73 73 76 77 77 77 77 77 77 78 80 79 79 78 78 78 79 80 78 77 76 75 75 76 77 78 78 79 78 79 78 78 78 79 80 79 78 76 76
72 73 74 73 72 75 76 73 71 75 75 77 75 72 68 66 60 61 60 58 68 75 66 68 69 68 71 74 75 76 78 77 77 77 77 77 76 76 77 78 79 78 78 76 74 74 74 74 75 76 77 77 77 78 79 80 78 78 79 78 78 76 76
67 71 73 74 75 75 76 76 72 70 72 71 69 66 64 65 62 67 63 57 68 74 67 69 68 71 73 74 75 75 76 76 77 76 76 76 75 74 75 75 76 76 75 73 73 74 74 74 76 76 76 76 76 76 78 80 80 80 79 78 77 76 76
54 54 54 57 66 71 73 70 68 70 74 68 69 66 64 60 57 58 62 64 71 74 71 73 74 71 72 74 75 77 76 76 76 76 75 74 74 73 73 74 74 73 73 73 73 74 74 75 76 75 75 76 76 76 76 78 79 78 78 78 78 77 77
66 68 68 68 71 71 70 68 71 69 69 72 71 67 63 64 53 57 56 65 70 72 76 76 78 74 75 76 74 73 73 74 75 75 74 73 73 73 73 73 74 73 73 72 73 73 74 76 76 76 76 75 76 75 76 77 77 78 77 76 75 75 76
69 68 66 69 70 73 71 70 69 70 68 70 71 68 67 60 60 59 56 51 64 70 74 76 75 75 74 74 75 75 73 73 73 73 72 72 72 73 73 73 73 72 73 73 73 73 74 75 76 76 76 76 75 75 76 77 78 77 77 75 75 75 75
63 63 65 66 69 71 71 74 71 69 69 68 69 68 66 65 67 65 61 51 63 70 75 78 79 78 76 77 77 77 76 75 73 71 71 71 72 72 73 73 73 73 73 72 73 73 74 75 75 75 74 74 74 75 76 76 78 77 76 75 74 75 74
65 63 65 66 71 67 70 70 72 72 69 70 72 70 66 69 68 69 67 59 63 72 75 78 79 77 76 77 76 75 74 74 72 72 71 72 72 72 73 73 73 74 74 73 73 73 73 74 74 74 74 74 74 75 75 76 75 76 75 74 74 74 74
65 65 66 67 69 70 70 68 67 68 69 68 67 68 64 64 64 66 66 63 63 72 73 74 77 74 72 72 72 74 74 73 72 72 71 72 72 73 73 73 74 74 74 74 74 73 74 74 74 74 74 75 75 77 77 78 75 76 76 74 74 74 74
65 65 66 65 67 69 68 67 68 65 65 66 67 66 69 66 66 65 63 63 66 76 75 72 71 69 69 71 72 72 72 73 72 71 72 71 72 73 73 74 74 73 73 73 73 74 74 75 75 74 74 75 75 75 76 76 77 77 75 74 74 74 74
65 61 63 66 66 68 64 65 70 71 69 70 69 68 66 71 73 68 65 68 76 77 71 70 74 72 71 71 72 72 71 71 73 72 72 72 73 73 73 73 73 74 74 74 74 75 76 76 75 75 75 75 74 75 76 76 76 75 75 75 74 74 75
62 61 64 66 65 57 60 72 72 75 71 69 69 70 69 69 70 73 74 74 73 70 70 69 72 73 72 71 71 72 72 71 70 73 73 74 74 75 75 75 75 74 75 75 76 76 76 77 78 77 77 76 76 78 78 77 75 74 73 74 74 74 74
61 60 62 61 55 59 70 68 67 68 72 74 74 73 72 72 70 70 69 72 72 73 74 73 72 72 71 70 70 72 73 73 73 72 73 73 74 74 75 75 75 74 74 74 74 75 76 77 76 76 75 76 77 77 76 75 75 73 74 74 74 74 74
62 60 61 52 57 66 67 69 68 70 71 68 69 68 72 72 73 71 70 73 76 75 73 72 70 69 71 71 71 71 73 74 74 74 74 75 76 75 76 75 74 73 74 74 74 74 76 76 76 76 76 77 77 77 77 76 75 74 74 73 74 74 74
61 61 62 63 63 65 69 69 68 70 70 68 69 67 73 75 73 71 71 74 75 73 70 70 70 70 71 71 74 73 73 73 75 76 77 78 77 78 77 77 75 75 76 75 76 76 75 76 76 76 77 77 76 77 76 76 74 75 74 73 73 74 74
63 60 59 60 60 56 63 71 75 75 77 77 75 73 70 74 73 72 75 73 74 71 70 69 69 69 73 75 78 74 75 75 74 76 78 80 79 79 78 76 76 75 75 76 76 76 76 76 76 77 77 76 76 75 75 76 76 75 74 74 74 74 74
60 61 57 57 55 61 70 73 78 73 72 77 74 71 66 75 77 74 73 75 74 72 71 70 68 72 73 75 80 76 74 75 78 77 77 79 80 78 77 77 76 75 74 75 76 76 76 76 76 76 76 76 75 75 75 77 76 75 74 75 75 75 75
62 62 58 57 61 64 70 72 72 72 71 74 74 59 62 76 75 75 73 74 74 71 71 72 70 74 73 76 78 77 75 76 78 76 74 74 75 75 76 77 77 76 74 73 73 74 74 75 77 76 76 75 75 75 76 77 76 74 75 75 76 77 76
59 57 61 61 63 67 68 70 72 69 72 73 63 54 71 77 74 71 72 75 76 71 70 71 71 74 77 75 73 73 76 75 74 76 77 77 77 76 77 77 76 75 74 74 74 75 75 76 77 76 75 74 73 74 75 74 74 75 76 77 76 76 75
61 61 60 61 64 70 74 69 72 73 72 61 60 76 73 76 76 72 73 75 73 72 72 71 76 78 75 72 72 73 76 76 75 76 76 76 76 78 78 76 75 75 75 74 75 77 76 77 77 75 73 72 73 74 74 73 75 77 77 76 75 74 74
58 58 58 56 48 66 71 72 71 72 67 72 75 73 70 72 75 74 71 73 72 72 72 73 74 76 75 75 74 75 76 76 75 75 75 74 74 75 74 74 76 76 74 74 75 77 79 79 76 74 74 72 73 73 73 74 76 77 76 75 74 74 73
62 57 53 54 68 70 73 74 70 70 74 72 68 70 76 74 72 73 73 72 72 72 74 72 74 73 73 71 71 72 73 74 75 74 74 74 75 75 79 80 77 77 75 75 76 77 78 76 75 74 73 72 73 73 73 76 76 75 74 74 73 72 73
63 62 66 71 68 70 73 70 70 72 73 71 71 70 72 74 75 72 73 72 70 71 73 73 74 72 73 75 73 74 74 74 74 74 74 74 75 76 76 78 77 77 77 75 75 75 74 73 73 73 74 74 73 73 75 76 74 75 74 73 72 72 73
65 67 69 70 69 70 71 74 72 72 73 75 74 73 73 74 74 72 73 73 71 70 73 74 72 76 74 72 71 72 73 73 72 71 72 72 73 74 74 74 74 75 75 75 74 74 73 72 72 72 73 75 74 74 77 75 76 75 74 73 72 73 74
61 58 66 66 70 71 71 73 74 74 74 72 73 72 71 73 72 71 72 72 71 72 72 75 74 73 73 73 72 72 71 72 72 72 73 72 72 72 73 73 72 73 73 74 74 74 73 73 73 75 74 75 77 77 76 76 75 74 73 72 72 72 72
63 65 69 70 72 70 71 70 71 74 75 73 72 70 72 72 71 72 71 72 71 72 73 74 74 72 73 75 72 74 74 73 71 71 70 70 70 70 70 70 71 72 72 73 73 73 73 74 73 74 75 74 76 76 78 78 77 73 72 72 73 73 72
66 68 67 70 72 74 75 74 72 72 72 73 72 69 69 71 71 69 71 74 73 74 75 73 74 74 73 75 76 79 76 74 73 71 70 69 70 70 70 70 70 71 72 72 72 72 73 73 72 72 72 74 75 73 74 74 72 73 73 72 72 72 72
63 64 64 67 62 63 69 72 75 75 73 70 71 69 71 73 72 71 72 71 72 75 74 75 78 75 73 72 73 80 75 74 71 69 68 68 69 69 68 69 70 70 69 70 70 70 70 70 71 71 71 71 72 76 75 73 72 72 72 72 72 73 72
60 67 69 67 66 65 68 71 73 73 72 70 70 71 73 73 74 75 74 72 70 71 71 73 77 74 74 71 70 74 75 70 68 68 68 68 68 68 68 68 68 68 68 68 68 68 69 69 70 70 70 72 72 73 72 72 72 72 71 70 71 72 71
68 71 69 68 65 64 68 71 70 70 71 70 70 73 73 73 73 74 75 75 73 71 72 70 73 75 73 71 72 74 71 68 67 66 66 67 68 68 68 68 67 67 67 68 68 69 70 70 70 70 72 72 71 74 72 72 72 72 71 70 69 70 70
66 71 70 68 66 67 70 70 69 69 70 70 71 72 73 73 73 75 75 74 75 74 72 72 69 71 73 70 71 72 70 67 65 64 64 65 66 67 69 69 68 68 69 69 69 70 70 70 70 71 71 71 71 74 72 73 73 72 71 70 71 71 70
MSLP
1011.58 1011.54 1011.90 1012.14 1011.74 1015.90 1015.18 1015.50 1015.82 1015.38 1014.58 1015.38 1021.06 1021.70 1021.98 1021.38 1020.46 1020.42 1019.42 1019.10 1016.98 1015.34 1014.22 1014.50 1014.86 1015.10 1014.62 1014.62 1014.42 1014.06 1013.82 1013.74 1013.94 1014.38 1014.38 1014.50 1014.50 1014.58 1014.82 1015.18 1015.46 1015.78 1015.98 1016.26 1016.34 1016.42 1016.50 1016.58 1016.66 1016.74 1016.78 1016.70 1016.58 1016.82 1017.06 1017.18 1017.22 1017.18 1017.18 1017.22 1017.30 1017.34 1017.34
1012.34 1011.70 1011.50 1012.10 1012.70 1011.78 1013.90 1015.82 1014.98 1015.30 1014.74 1014.46 1016.38 1019.50 1021.58 1020.74 1021.54 1020.50 1020.86 1018.94 1018.06 1018.38 1017.26 1015.02 1015.14 1015.10 1014.46 1014.94 1014.54 1013.94 1013.86 1013.74 1014.18 1014.02 1014.10 1014.14 1014.22 1014.22 1014.34 1014.78 1015.10 1015.38 1015.66 1015.98 1016.06 1016.02 1016.02 1016.14 1016.26 1016.54 1016.54 1016.38 1016.34 1016.54 1016.70 1016.94 1017.10 1017.14 1017.02 1017.06 1017.18 1017.18 1017.26
1012.38 1012.14 1011.58 1011.74 1011.78 1012.02 1012.18 1012.86 1012.34 1014.22 1017.58 1017.74 1018.42 1018.22 1022.42 1021.78 1021.62 1020.34 1020.10 1020.70 1020.06 1018.50 1016.14 1014.66 1014.22 1014.10 1013.98 1014.74 1014.58 1014.34 1014.22 1013.94 1013.78 1013.74 1013.78 1013.86 1013.90 1014.14 1014.50 1014.82 1015.18 1015.38 1015.58 1015.78 1015.90 1015.86 1015.70 1015.86 1016.10 1016.26 1016.18 1016.22 1016.34 1016.58 1016.62 1016.62 1016.82 1016.78 1016.82 1016.90 1016.98 1017.02 1017.06
1012.66 1011.94 1011.66 1014.62 1014.18 1012.54 1012.42 1012.02 1013.50 1014.34 1013.62 1016.26 1017.86 1017.74 1017.78 1017.82 1021.02 1022.26 1019.82 1020.66 1017.54 1016.26 1015.02 1013.58 1013.02 1012.78 1013.14 1014.34 1014.78 1014.30 1013.50 1013.18 1013.22 1013.26 1013.30 1013.58 1013.82 1013.86 1014.10 1014.46 1014.78 1015.02 1015.18 1015.30 1015.38 1015.54 1015.74 1015.90 1016.14 1016.18 1016.10 1016.06 1016.26 1016.50 1016.74 1016.78 1016.70 1016.70 1016.82 1016.86 1016.90 1016.94 1016.94
1012.82 1014.10 1012.50 1012.86 1012.66 1014.62 1015.10 1013.90 1015.18 1014.70 1015.94 1016.26 1016.02 1017.62 1018.06 1018.22 1019.94 1020.46 1019.94 1019.94 1016.98 1014.10 1013.58 1013.14 1012.26 1011.90 1012.66 1013.22 1013.82 1013.70 1013.22 1012.82 1012.82 1012.82 1012.86 1013.02 1013.14 1013.42 1013.74 1014.02 1014.42 1014.70 1014.86 1014.98 1015.14 1015.22 1015.38 1015.58 1015.82 1015.90 1015.90 1016.02 1016.10 1016.34 1016.62 1016.58 1016.70 1016.70 1016.74 1016.70 1016.70 1016.78 1016.78
1014.02 1012.54 1013.02 1013.06 1012.06 1011.46 1011.94 1012.86 1013.66 1013.34 1016.42 1017.10 1018.46 1019.34 1019.22 1019.18 1018.34 1020.70 1020.70 1019.70 1015.42 1012.58 1012.74 1012.10 1011.62 1012.06 1012.38 1012.42 1012.38 1012.82 1012.62 1012.42 1012.46 1012.54 1012.50 1012.54 1012.94 1013.06 1013.42 1013.70 1013.90 1014.22 1014.58 1014.86 1015.06 1015.26 1015.42 1015.66 1015.74 1015.78 1015.82 1015.98 1016.18 1016.38 1016.30 1016.42 1016.34 1016.46 1016.50 1016.58 1016.62 1016.62 1016.70
1012.94 1013.46 1012.90 1013.50 1012.74 1012.78 1012.58 1011.86 1012.54 1012.38 1013.02 1013.78 1015.70 1018.66 1019.18 1019.38 1019.34 1019.14 1019.14 1019.82 1015.98 1011.94 1013.06 1012.98 1012.62 1012.82 1012.42 1012.02 1012.02 1012.14 1012.02 1012.06 1012.06 1012.14 1012.02 1012.22 1012.42 1012.82 1013.18 1013.42 1013.58 1013.82 1014.22 1014.58 1014.94 1015.26 1015.46 1015.58 1015.62 1015.70 1015.90 1015.98 1016.10 1016.18 1016.34 1016.30 1016.38 1016.38 1016.22 1016.30 1016.34 1016.46 1016.58
1013.58 1013.06 1012.70 1012.94 1013.26 1012.54 1012.58 1013.46 1013.98 1013.30 1013.46 1012.94 1013.50 1014.54 1015.90 1016.98 1019.74 1019.46 1019.98 1019.82 1015.62 1012.22 1013.90 1013.78 1013.58 1013.58 1013.14 1012.46 1012.14 1011.98 1011.74 1011.70 1011.74 1011.98 1012.14 1012.34 1012.66 1012.98 1013.14 1013.22 1013.38 1013.66 1014.02 1014.54 1015.02 1015.34 1015.50 1015.62 1015.66 1015.74 1015.78 1015.90 1016.02 1016.06 1016.10 1016.10 1016.26 1016.22 1016.22 1016.22 1016.22 1016.38 1016.50
1015.22 1014.14 1013.18 1013.22 1012.78 1012.70 1012.74 1012.70 1013.86 1014.10 1013.94 1014.30 1015.30 1015.74 1016.42 1016.82 1018.38 1016.62 1018.06 1019.66 1015.38 1012.54 1013.54 1013.38 1013.58 1013.14 1012.70 1012.38 1012.06 1011.98 1011.98 1011.70 1011.62 1011.78 1011.98 1012.14 1012.54 1013.02 1013.30 1013.42 1013.54 1013.78 1014.18 1014.74 1014.94 1015.02 1015.22 1015.34 1015.42 1015.54 1015.70 1015.82 1015.90 1015.98 1015.98 1015.98 1015.94 1015.90 1016.02 1016.02 1016.18 1016.26 1016.34
1018.66 1018.78 1018.86 1016.62 1015.06 1013.62 1013.38 1014.10 1014.70 1014.34 1013.42 1014.66 1014.70 1016.18 1017.10 1017.26 1018.34 1018.26 1017.50 1016.66 1013.18 1012.10 1011.98 1012.18 1012.42 1012.90 1012.74 1012.10 1011.78 1011.54 1011.54 1011.58 1011.70 1011.74 1011.94 1012.26 1012.50 1012.78 1013.02 1013.34 1013.62 1013.94 1014.14 1014.34 1014.62 1014.78 1014.94 1015.02 1015.14 1015.30 1015.50 1015.58 1015.70 1015.78 1015.86 1015.74 1015.78 1015.86 1015.94 1015.90 1015.98 1016.14 1016.14
1013.62 1012.50 1011.86 1012.30 1011.74 1013.06 1013.66 1014.34 1013.70 1014.58 1014.34 1013.82 1013.86 1015.34 1016.70 1016.38 1018.14 1018.30 1015.46 1014.82 1013.90 1013.26 1012.26 1011.78 1011.46 1011.82 1011.70 1011.26 1011.86 1012.02 1011.82 1011.66 1011.58 1011.66 1011.82 1012.10 1012.34 1012.54 1012.74 1012.98 1013.22 1013.58 1014.02 1014.26 1014.34 1014.54 1014.62 1014.70 1014.86 1014.98 1015.22 1015.38 1015.50 1015.66 1015.74 1015.62 1015.62 1015.70 1015.74 1015.90 1015.98 1016.06 1016.02
1011.74 1011.90 1012.26 1012.62 1012.14 1012.18 1012.78 1013.50 1014.10 1014.02 1014.46 1014.22 1014.06 1015.10 1015.18 1015.34 1017.26 1017.70 1015.02 1015.50 1015.70 1013.74 1012.46 1011.82 1011.18 1011.26 1011.50 1011.38 1011.34 1011.38 1011.58 1011.58 1011.62 1011.74 1012.14 1012.34 1012.50 1012.58 1012.70 1012.94 1013.22 1013.46 1013.70 1013.98 1014.22 1014.38 1014.50 1014.58 1014.66 1014.86 1014.98 1015.10 1015.30 1015.42 1015.50 1015.42 1015.46 1015.58 1015.62 1015.78 1015.86 1015.90 1015.90
1013.66 1014.18 1013.78 1013.50 1012.50 1012.18 1012.38 1012.02 1013.02 1014.10 1014.18 1014.58 1014.38 1014.10 1014.94 1014.86 1015.26 1015.38 1014.34 1015.34 1015.18 1013.30 1012.18 1011.30 1010.90 1010.38 1010.66 1010.34 1010.26 1010.54 1010.66 1011.06 1011.42 1011.82 1012.14 1012.34 1012.38 1012.50 1012.62 1012.74 1012.94 1013.14 1013.42 1013.66 1013.94 1014.14 1014.26 1014.34 1014.62 1014.78 1014.94 1015.10 1015.22 1015.26 1015.26 1015.26 1015.26 1015.34 1015.34 1015.58 1015.66 1015.70 1015.74
1013.58 1013.98 1013.82 1013.42 1012.18 1013.18 1013.14 1013.02 1012.94 1012.98 1013.90 1013.90 1013.30 1013.86 1014.82 1014.42 1014.22 1013.82 1014.58 1015.62 1014.94 1012.74 1012.06 1011.22 1010.26 1010.14 1010.74 1010.50 1010.38 1010.58 1010.82 1010.86 1011.18 1011.54 1011.82 1011.86 1011.98 1012.10 1012.22 1012.42 1012.58 1012.66 1012.78 1013.14 1013.54 1013.78 1014.06 1014.26 1014.42 1014.58 1014.78 1014.94 1015.02 1015.10 1015.14 1015.10 1015.18 1015.06 1015.18 1015.42 1015.46 1015.46 1015.50
1013.46 1013.58 1013.54 1013.26 1012.90 1012.58 1013.02 1013.86 1013.70 1013.78 1014.06 1014.30 1014.62 1014.54 1015.38 1015.58 1015.42 1014.86 1014.94 1015.46 1014.82 1011.86 1011.46 1011.26 1010.26 1010.50 1011.14 1011.22 1011.06 1010.50 1010.34 1010.58 1010.98 1011.22 1011.38 1011.42 1011.54 1011.58 1011.82 1012.06 1012.18 1012.26 1012.50 1012.82 1013.22 1013.58 1013.78 1013.94 1014.06 1014.22 1014.38 1014.50 1014.62 1014.66 1014.66 1014.66 1014.82 1014.74 1014.90 1015.18 1015.22 1015.22 1015.22
1013.46 1013.74 1013.46 1013.82 1013.46 1013.22 1013.46 1013.74 1013.90 1014.54 1014.94 1014.86 1014.58 1014.58 1013.90 1014.58 1014.74 1014.14 1014.90 1015.38 1014.06 1010.98 1010.42 1011.38 1011.22 1011.34 1011.42 1011.06 1010.62 1010.58 1010.46 1010.34 1010.62 1010.90 1010.94 1011.10 1011.18 1011.30 1011.38 1011.54 1011.78 1012.14 1012.38 1012.74 1013.06 1013.26 1013.38 1013.50 1013.70 1013.94 1014.14 1014.26 1014.42 1014.54 1014.42 1014.42 1014.34 1014.38 1014.74 1014.90 1014.94 1014.90 1014.82
1013.50 1014.90 1014.34 1013.82 1013.78 1013.70 1014.78 1014.30 1012.54 1012.46 1013.14 1012.74 1013.34 1013.74 1013.94 1012.86 1012.22 1013.82 1014.70 1013.34 1010.78 1010.18 1010.74 1011.02 1010.14 1010.46 1010.94 1010.90 1010.50 1010.46 1010.42 1010.38 1010.26 1010.38 1010.46 1010.50 1010.62 1010.74 1010.90 1011.18 1011.42 1011.66 1011.94 1012.18 1012.50 1012.74 1012.86 1013.06 1013.34 1013.42 1013.58 1013.94 1014.18 1014.06 1014.02 1013.86 1014.02 1014.34 1014.50 1014.54 1014.62 1014.62 1014.54
1014.34 1015.14 1014.46 1013.74 1014.06 1016.70 1015.34 1011.06 1010.90 1010.74 1012.26 1012.82 1013.34 1013.06 1012.62 1012.42 1012.50 1011.74 1011.34 1010.90 1010.62 1010.94 1011.06 1011.06 1010.42 1010.18 1010.22 1010.50 1010.38 1010.10 1010.10 1010.34 1010.42 1010.14 1010.06 1010.02 1010.06 1010.26 1010.38 1010.46 1010.78 1011.18 1011.50 1011.78 1012.02 1012.14 1012.30 1012.42 1012.58 1012.78 1013.06 1013.34 1013.38 1013.26 1013.30 1013.50 1013.90 1014.10 1014.26 1014.26 1014.34 1014.34 1014.26
1014.62 1015.22 1014.58 1015.06 1016.98 1014.98 1011.66 1011.70 1011.98 1012.26 1011.34 1010.90 1011.10 1011.02 1011.26 1011.50 1011.82 1011.58 1011.78 1011.18 1010.54 1009.66 1009.78 1010.14 1010.14 1010.14 1010.22 1010.22 1010.18 1009.94 1009.54 1009.62 1009.74 1009.86 1009.82 1009.90 1009.94 1010.06 1010.18 1010.54 1010.70 1011.06 1011.30 1011.58 1011.90 1012.18 1012.26 1012.22 1012.42 1012.74 1013.02 1013.06 1013.06 1013.18 1013.22 1013.50 1013.62 1013.86 1013.94 1014.02 1014.10 1014.10 1014.10
1014.42 1014.98 1014.66 1016.98 1015.02 1012.42 1011.82 1011.54 1012.22 1011.70 1011.58 1012.18 1012.10 1012.42 1011.10 1010.62 1010.90 1010.86 1011.46 1010.46 1009.38 1009.26 1009.82 1010.10 1010.34 1010.50 1010.10 1009.90 1009.66 1009.58 1009.14 1009.02 1009.18 1009.42 1009.50 1009.50 1009.58 1009.82 1009.70 1010.10 1010.54 1010.90 1011.14 1011.42 1011.66 1011.82 1011.70 1012.06 1012.26 1012.38 1012.54 1012.54 1012.86 1012.86 1012.86 1013.18 1013.34 1013.54 1013.66 1013.86 1013.86 1013.82 1013.86
1013.58 1013.94 1013.74 1013.34 1013.14 1012.70 1011.54 1011.82 1011.54 1011.42 1011.22 1011.90 1011.82 1012.86 1010.94 1009.14 1009.62 1010.58 1010.70 1009.70 1009.42 1009.74 1010.26 1010.38 1010.34 1010.30 1010.10 1009.98 1008.94 1008.78 1008.86 1008.90 1008.74 1008.74 1008.82 1008.74 1008.94 1009.06 1009.38 1009.58 1010.02 1010.18 1010.38 1010.94 1011.10 1011.18 1011.50 1011.70 1011.90 1012.06 1012.02 1012.22 1012.46 1012.54 1012.78 1012.94 1013.14 1013.26 1013.46 1013.70 1013.62 1013.54 1013.58
1013.54 1013.98 1014.86 1014.34 1014.22 1015.46 1013.18 1009.98 1008.70 1008.86 1008.82 1008.78 1009.06 1010.22 1011.46 1008.82 1009.22 1009.70 1009.38 1009.46 1009.22 1009.70 1010.26 1010.54 1010.42 1010.38 1009.86 1009.58 1008.46 1008.58 1008.50 1008.50 1008.78 1008.58 1008.46 1008.38 1008.62 1008.86 1009.22 1009.62 1009.90 1010.22 1010.38 1010.42 1010.50 1010.82 1011.14 1011.34 1011.34 1011.38 1011.62 1011.90 1012.14 1012.42 1012.54 1012.62 1012.86 1013.02 1013.26 1013.34 1013.18 1013.22 1013.22
1014.30 1013.86 1014.62 1014.74 1015.26 1013.30 1010.38 1009.62 1008.46 1009.38 1009.66 1009.10 1009.06 1011.02 1012.50 1008.90 1007.78 1008.74 1009.14 1009.10 1009.14 1009.42 1009.74 1010.30 1010.62 1010.10 1010.18 1009.54 1008.06 1008.22 1008.50 1008.42 1008.22 1008.62 1008.58 1008.46 1008.58 1008.98 1009.30 1009.58 1009.90 1010.14 1010.26 1010.26 1010.42 1010.70 1010.90 1011.14 1010.94 1010.98 1011.26 1011.58 1011.82 1012.14 1012.22 1012.30 1012.46 1012.74 1012.94 1012.90 1012.86 1012.86 1012.74
1012.94 1012.94 1014.38 1014.50 1013.34 1012.38 1010.18 1009.06 1009.46 1009.82 1009.78 1009.14 1010.14 1014.54 1013.22 1008.34 1007.38 1007.90 1008.94 1008.62 1008.46 1009.34 1009.62 1009.74 1010.22 1009.58 1010.14 1009.22 1008.22 1007.98 1008.22 1008.26 1008.14 1008.34 1008.82 1008.90 1009.06 1009.34 1009.34 1009.38 1009.26 1009.38 1009.74 1010.38 1010.74 1010.82 1010.86 1010.50 1010.22 1010.66 1011.06 1011.34 1011.50 1011.74 1011.82 1011.90 1012.26 1012.50 1012.50 1012.38 1012.22 1012.22 1012.30
1013.58 1013.62 1013.18 1013.30 1012.70 1011.02 1009.82 1009.42 1009.70 1009.98 1009.66 1009.94 1013.14 1015.10 1010.30 1007.06 1007.18 1008.14 1008.34 1007.70 1007.86 1008.86 1009.50 1009.58 1009.82 1008.86 1008.10 1008.18 1008.42 1008.34 1008.02 1008.46 1008.58 1008.42 1008.42 1008.54 1008.66 1008.94 1009.18 1009.26 1009.26 1009.62 1009.82 1009.86 1009.98 1009.94 1009.78 1009.70 1010.06 1010.46 1010.90 1011.14 1011.38 1011.46 1011.58 1011.86 1012.06 1011.98 1011.82 1011.82 1011.94 1012.10 1012.18
1012.90 1013.10 1013.38 1012.94 1012.06 1010.06 1009.14 1010.30 1009.82 1009.54 1010.14 1013.54 1013.42 1008.38 1006.98 1006.62 1006.74 1007.78 1008.02 1007.70 1008.22 1008.50 1008.58 1008.82 1008.22 1007.78 1008.14 1008.46 1008.46 1008.42 1008.18 1008.18 1008.42 1008.50 1008.62 1008.82 1008.94 1008.82 1008.86 1009.06 1009.30 1009.50 1009.70 1009.86 1009.78 1009.66 1009.54 1009.70 1009.98 1010.46 1010.78 1011.06 1011.14 1011.34 1011.54 1011.66 1011.46 1011.26 1011.46 1011.66 1011.82 1011.98 1012.10
1014.30 1014.26 1013.94 1014.06 1015.26 1010.70 1009.70 1009.66 1010.10 1009.78 1011.30 1009.18 1007.78 1007.34 1007.18 1007.50 1007.18 1007.06 1008.02 1007.90 1008.02 1008.10 1008.30 1008.18 1008.10 1008.06 1008.22 1008.22 1008.38 1008.26 1008.18 1008.26 1008.54 1008.74 1008.82 1009.02 1009.06 1009.10 1009.26 1009.38 1009.26 1009.42 1009.78 1009.82 1009.74 1009.46 1009.38 1009.66 1010.06 1010.38 1010.62 1010.90 1011.06 1011.18 1011.42 1011.14 1010.90 1011.06 1011.30 1011.54 1011.70 1011.86 1011.94
1012.10 1013.90 1014.70 1013.98 1010.18 1009.66 1009.26 1009.18 1009.98 1009.66 1008.14 1008.22 1008.94 1008.82 1007.74 1007.62 1008.02 1007.82 1007.62 1007.82 1007.62 1007.70 1007.54 1008.14 1008.06 1008.22 1008.34 1008.50 1008.62 1008.62 1008.62 1008.50 1008.54 1008.74 1008.86 1008.90 1008.94 1009.02 1008.82 1008.82 1009.10 1009.30 1009.58 1009.58 1009.54 1009.50 1009.50 1009.78 1010.02 1010.18 1010.42 1010.74 1010.86 1011.02 1011.02 1010.58 1010.74 1011.02 1011.22 1011.38 1011.58 1011.78 1011.82
1011.62 1011.70 1010.90 1009.30 1009.42 1009.58 1009.14 1009.62 1009.02 1008.54 1008.10 1008.18 1008.42 1008.74 1008.50 1007.94 1007.50 1007.66 1007.62 1007.58 1007.78 1007.82 1007.70 1007.82 1007.82 1008.06 1008.10 1008.02 1008.42 1008.38 1008.50 1008.66 1008.70 1008.82 1008.94 1009.02 1009.06 1009.06 1009.14 1009.10 1009.10 1009.26 1009.46 1009.62 1009.66 1009.74 1009.82 1009.98 1010.06 1010.14 1010.14 1010.38 1010.62 1010.82 1010.50 1010.38 1010.78 1010.86 1011.02 1011.22 1011.50 1011.66 1011.66
1010.94 1010.38 1009.98 1009.78 1009.70 1009.50 1009.22 1008.74 1008.86 1008.70 1008.10 1007.70 1007.78 1008.06 1008.10 1007.50 1007.34 1007.54 1007.38 1007.30 1007.58 1007.90 1007.62 1007.94 1008.22 1007.78 1007.94 1008.18 1008.58 1008.54 1008.58 1008.66 1008.90 1008.98 1008.98 1009.14 1009.18 1009.18 1009.22 1009.34 1009.46 1009.46 1009.50 1009.62 1009.78 1009.90 1009.94 1009.98 1010.10 1010.06 1010.06 1010.02 1010.38 1010.30 1010.10 1010.30 1010.38 1010.50 1010.78 1011.14 1011.42 1011.50 1011.46
1011.74 1011.58 1010.30 1010.26 1009.50 1009.14 1008.94 1008.58 1008.18 1008.06 1007.90 1007.94 1007.74 1007.70 1007.62 1007.34 1007.22 1007.42 1007.26 1007.22 1007.54 1007.58 1007.74 1007.62 1007.70 1007.98 1008.14 1008.26 1008.50 1008.62 1008.66 1008.70 1008.78 1008.86 1008.94 1009.10 1009.22 1009.30 1009.34 1009.38 1009.46 1009.58 1009.66 1009.78 1009.82 1009.86 1009.94 1009.86 1009.94 1009.86 1009.94 1009.86 1009.70 1009.74 1010.02 1010.02 1010.18 1010.42 1010.78 1011.06 1011.30 1011.34 1011.38
1011.50 1010.66 1009.58 1009.50 1008.90 1008.50 1008.26 1008.66 1008.54 1007.98 1007.50 1007.46 1007.58 1007.54 1007.14 1006.98 1007.10 1007.06 1007.22 1007.22 1007.58 1007.54 1007.70 1007.58 1007.58 1007.94 1008.02 1007.90 1008.14 1008.30 1008.38 1008.54 1008.70 1008.90 1009.06 1009.14 1009.22 1009.30 1009.38 1009.46 1009.46 1009.54 1009.66 1009.74 1009.70 1009.70 1009.74 1009.58 1009.78 1009.74 1009.74 1009.78 1009.82 1009.90 1009.78 1009.78 1010.02 1010.50 1010.86 1010.98 1011.10 1011.22 1011.26
1010.42 1009.94 1009.98 1009.46 1008.38 1007.74 1007.66 1007.74 1007.90 1007.78 1007.74 1007.66 1007.38 1007.54 1007.54 1007.26 1007.18 1007.42 1007.30 1006.90 1007.14 1007.30 1007.26 1007.54 1007.38 1007.62 1007.86 1007.78 1007.66 1007.70 1007.94 1007.98 1008.18 1008.38 1008.54 1008.74 1008.82 1009.10 1009.26 1009.34 1009.42 1009.50 1009.50 1009.58 1009.58 1009.66 1009.74 1009.66 1009.82 1009.98 1010.06 1009.98 1009.94 1010.14 1010.02 1010.02 1010.30 1010.54 1010.74 1010.90 1011.10 1011.14 1011.18
1011.22 1010.86 1010.82 1010.38 1011.26 1010.86 1008.90 1008.02 1007.54 1007.50 1007.58 1007.86 1007.70 1007.54 1007.46 1007.02 1007.02 1007.14 1007.14 1007.46 1007.30 1007.14 1007.30 1007.18 1006.98 1007.26 1007.74 1007.82 1007.74 1007.66 1007.90 1008.14 1008.30 1008.46 1008.62 1008.82 1009.18 1009.38 1009.50 1009.46 1009.50 1009.58 1009.74 1009.82 1009.90 1010.02 1010.06 1010.06 1010.10 1010.14 1010.26 1010.30 1010.22 1009.94 1009.94 1010.10 1010.34 1010.58 1010.78 1010.90 1010.94 1010.98 1011.06
1011.78 1010.10 1009.86 1010.26 1010.66 1010.38 1009.46 1008.62 1007.78 1007.58 1007.70 1007.86 1007.86 1007.30 1006.86 1006.78 1006.58 1006.34 1006.54 1007.30 1007.70 1007.70 1007.58 1007.22 1006.86 1007.06 1007.30 1007.74 1007.94 1007.94 1008.18 1008.34 1008.82 1009.18 1009.26 1009.30 1009.42 1009.58 1009.66 1009.74 1009.90 1010.06 1010.14 1010.22 1010.22 1010.26 1010.22 1010.22 1010.18 1010.26 1010.26 1010.26 1010.18 1010.02 1010.02 1010.14 1010.30 1010.54 1010.70 1010.90 1010.98 1010.98 1011.10
1009.98 1009.54 1009.82 1010.02 1010.50 1010.58 1009.22 1008.22 1008.02 1007.86 1007.58 1007.78 1007.70 1007.10 1006.86 1006.70 1006.62 1006.46 1006.34 1006.30 1006.74 1007.38 1007.42 1007.46 1007.30 1007.14 1007.38 1007.78 1007.94 1007.94 1008.34 1008.90 1009.26 1009.42 1009.54 1009.54 1009.58 1009.70 1009.82 1009.94 1010.14 1010.26 1010.34 1010.30 1010.26 1010.22 1010.18 1010.18 1010.18 1010.18 1010.14 1010.10 1010.14 1009.98 1010.06 1010.10 1010.18 1010.38 1010.54 1010.74 1010.90 1010.90 1010.90
1010.42 1009.34 1009.54 1009.78 1009.90 1009.54 1008.82 1008.38 1008.10 1007.90 1007.70 1007.58 1007.46 1007.14 1006.90 1006.78 1006.62 1006.30 1006.22 1006.42 1006.30 1006.46 1007.02 1007.26 1007.62 1007.62 1007.42 1007.90 1008.06 1007.98 1008.30 1008.94 1009.42 1009.58 1009.70 1009.78 1009.86 1009.86 1009.82 1009.94 1010.02 1010.06 1010.06 1010.10 1010.14 1010.14 1010.14 1010.14 1010.10 1010.10 1010.06 1010.02 1009.98 1009.86 1009.94 1009.98 1010.06 1010.26 1010.46 1010.54 1010.62 1010.66 1010.86
Wind_Speed
1 2 4 1 1 7 5 4 6 1 3 6 6 3 3 1 1 3 2 5 4 6 6 3 4 5 7 5 8 10 12 11 12 12 12 12 12 11 10 10 9 10 8 8 8 9 8 8 8 8 8 7 7 6 6 5 4 4 3 2 2 2 1
4 1 4 7 4 2 8 5 5 7 0 3 1 2 1 1 4 2 3 5 3 3 1 1 4 6 5 5 8 11 11 11 13 13 13 13 13 12 11 9 8 9 9 9 8 8 10 10 9 8 8 6 5 6 6 6 5 4 3 2 2 2 1
5 2 3 7 7 7 1 2 10 4 3 4 3 2 3 3 5 2 3 3 5 5 4 0 4 5 6 6 6 9 12 13 14 13 14 13 12 10 10 11 9 9 9 9 9 10 10 8 7 7 7 6 5 4 4 4 5 4 2 2 1 1 1
2 2 3 7 3 7 7 9 5 3 2 2 5 1 1 2 1 2 2 1 4 6 4 5 4 5 4 7 8 11 14 16 13 12 13 14 14 12 11 11 10 10 10 10 11 11 10 9 8 7 7 6 7 5 4 4 3 3 2 3 2 3 2
2 6 5 8 9 8 4 6 2 2 4 1 2 2 0 2 2 3 2 4 3 3 5 5 6 5 7 10 10 10 12 13 13 12 12 13 14 12 11 11 11 11 10 10 9 9 8 7 6 6 6 7 6 4 5 5 5 4 4 3 3 3 2
7 3 3 3 3 1 9 10 9 8 9 6 4 3 2 1 2 2 4 6 4 1 3 7 6 2 5 9 10 10 12 12 12 11 13 12 11 11 11 11 12 11 10 9 8 6 5 6 8 8 6 5 5 5 5 5 4 4 4 4 4 3 3
3 3 4 3 3 1 3 2 3 5 3 4 3 4 4 1 1 2 2 3 5 2 2 4 4 2 5 7 9 9 9 12 12 12 12 11 10 10 11 12 12 11 10 10 9 9 9 9 7 7 6 6 5 5 5 5 5 5 5 4 3 3 3
1 1 1 2 0 3 4 2 2 6 7 4 5 2 4 5 5 3 2 4 5 1 2 3 4 5 6 6 8 10 8 9 11 12 12 11 9 8 10 10 9 9 9 8 7 8 7 7 7 7 6 5 4 4 5 5 7 6 5 4 4 4 4
1 0 3 3 2 3 2 2 4 2 4 6 5 6 1 2 6 3 4 8 7 3 1 2 2 4 6 8 8 9 9 8 9 11 11 9 9 9 11 11 10 9 8 9 8 8 8 8 7 6 6 6 5 5 5 6 7 6 5 4 4 5 5
7 7 5 7 8 8 3 2 4 3 7 11 6 4 3 4 1 4 3 7 5 1 3 4 3 2 6 7 7 8 9 8 9 9 10 9 11 11 12 11 11 11 10 8 8 8 7 8 8 7 6 5 5 5 6 6 6 5 5 4 5 5 6
9 9 4 4 5 6 7 6 9 7 2 3 3 4 4 8 3 6 5 6 6 5 3 5 5 4 8 8 7 10 10 10 8 8 9 10 10 11 14 13 11 9 8 10 10 9 9 9 8 6 6 5 5 5 6 6 6 5 5 4 5 5 7
2 4 2 3 2 7 4 10 9 7 8 8 8 7 6 7 7 5 3 2 6 10 7 7 9 7 8 8 6 7 8 8 9 8 7 7 8 9 9 10 12 12 11 10 9 9 9 8 7 6 5 5 5 6 7 7 6 6 4 4 5 6 6
1 2 3 1 1 2 5 7 11 11 9 8 11 7 5 8 6 9 1 5 5 9 7 8 9 8 7 9 9 8 6 6 8 9 11 13 13 12 13 13 12 12 12 10 10 10 9 9 8 7 5 5 5 5 6 5 6 7 5 5 5 6 6
4 3 1 1 4 4 5 5 8 7 10 11 10 4 5 10 7 4 1 5 12 13 7 10 12 3 5 7 4 4 8 10 11 12 13 14 14 15 15 14 14 12 12 11 10 10 9 10 9 7 6 6 7 7 8 7 6 6 4 5 6 6 6
3 2 2 3 4 3 6 4 2 3 3 2 1 1 2 2 7 8 8 7 12 8 9 14 12 4 5 7 10 10 9 9 12 13 14 14 15 15 13 13 14 12 11 10 10 10 10 10 10 8 7 7 7 8 8 7 6 6 6 6 6 6 7
2 2 2 5 5 5 4 2 5 6 6 6 5 5 6 5 5 2 1 5 8 6 4 5 8 6 7 10 10 9 8 9 11 13 14 14 14 15 15 14 13 11 11 11 11 11 11 10 9 7 7 7 7 9 8 6 6 5 5 6 7 7 8
2 2 0 5 5 3 2 6 11 12 7 1 2 1 2 9 5 6 6 9 6 6 1 4 5 4 6 8 8 6 6 9 11 13 13 14 14 15 15 15 14 13 13 12 12 11 10 9 8 9 9 8 8 9 7 6 5 5 6 7 7 8 8
3 3 4 3 4 7 5 2 3 7 11 11 8 6 9 9 7 5 3 7 4 4 5 7 10 8 5 4 4 4 6 7 10 11 11 13 14 14 14 14 14 12 10 9 9 11 10 10 10 9 9 9 9 8 6 5 5 6 6 7 7 8 8
4 4 4 4 8 7 4 2 1 3 1 7 9 2 3 5 8 8 8 10 10 11 9 9 9 7 6 7 9 8 8 9 9 12 12 13 14 15 15 12 11 10 11 10 9 8 8 9 8 7 7 8 8 5 5 6 6 6 6 6 7 8 8
4 3 4 4 4 2 3 2 3 2 5 4 3 5 9 10 11 11 10 12 12 8 6 6 5 6 7 6 7 7 7 10 10 11 11 13 13 14 13 13 11 11 11 11 11 11 9 8 8 8 9 9 8 8 6 6 6 6 6 6 7 7 7
4 2 6 4 5 4 4 2 4 7 5 6 5 7 4 7 6 9 8 10 8 5 4 3 3 3 3 4 5 6 7 8 9 10 11 13 14 13 11 13 13 12 11 10 11 9 8 9 9 9 9 9 8 7 7 6 6 6 5 6 8 7 7
1 3 3 2 4 8 5 7 1 3 1 3 4 5 6 4 6 7 9 9 6 4 2 1 2 2 2 4 1 3 6 8 9 8 8 9 10 10 10 6 6 7 8 10 9 9 10 10 11 9 9 9 8 7 7 7 7 6 6 8 8 7 7
3 3 5 5 6 4 1 8 4 4 0 3 6 3 7 4 6 9 10 9 6 6 5 4 3 3 4 4 1 3 6 7 9 9 9 9 9 7 9 12 11 10 10 11 10 9 9 11 11 11 10 10 8 8 8 8 7 7 7 7 7 8 8
4 5 5 7 4 4 3 5 1 1 3 4 3 7 6 2 6 7 9 9 8 7 5 7 5 5 5 3 1 3 7 7 7 9 8 7 7 7 8 8 9 9 9 8 8 10 12 14 12 11 10 9 9 8 8 7 7 8 8 8 7 6 5
4 6 4 2 4 4 6 6 2 4 2 3 7 7 7 3 4 7 9 10 7 8 8 8 6 6 1 2 2 3 7 7 6 5 5 5 8 10 11 10 9 6 8 10 12 14 13 12 9 9 9 8 8 8 7 7 8 8 8 6 5 5 4
5 4 6 4 3 2 2 3 2 4 6 5 9 4 1 3 6 6 9 8 7 9 10 9 4 2 2 0 2 5 8 8 7 6 6 4 4 5 4 5 7 7 7 9 10 10 9 6 6 6 7 8 8 7 7 9 10 8 5 4 3 4 5
3 2 3 0 3 2 2 9 5 1 4 4 3 2 2 3 3 6 8 8 8 9 9 7 4 2 3 2 3 4 5 6 7 7 6 6 7 6 6 6 8 8 7 8 10 12 7 6 6 7 8 8 8 7 8 10 7 5 4 3 3 3 4
2 4 4 3 1 4 2 5 4 7 7 3 2 3 5 2 3 4 5 7 8 10 8 10 6 4 4 2 3 4 3 3 4 4 3 2 2 3 6 6 7 8 8 7 8 7 4 5 6 7 8 8 7 8 10 7 5 4 4 3 2 2 4
4 2 2 1 1 2 1 3 7 6 7 6 5 3 6 7 5 3 4 5 5 7 6 7 6 5 3 4 5 5 5 4 4 5 4 4 4 4 4 4 3 5 7 8 5 3 3 4 5 6 7 8 8 10 7 5 5 5 4 3 2 2 4
3 5 7 6 6 5 6 6 6 9 10 6 5 7 7 6 4 4 5 4 6 7 6 7 3 2 5 5 4 3 4 4 3 2 1 1 1 2 2 2 1 3 3 4 5 6 4 5 5 6 7 8 9 9 6 5 5 4 3 2 2 4 3
1 1 3 2 6 8 7 7 6 7 9 7 4 5 7 6 3 5 3 4 7 8 8 6 6 5 5 6 5 3 4 3 3 3 3 2 2 2 3 1 1 2 3 4 6 7 7 5 6 7 7 7 7 6 5 5 5 4 3 2 3 3 2
3 2 5 7 9 9 8 5 7 7 4 5 5 5 4 2 3 3 4 6 7 7 7 4 7 6 4 5 6 4 4 4 4 3 2 2 1 1 2 1 2 3 4 6 7 7 7 5 5 6 6 6 3 1 2 3 4 3 3 3 3 1 1
4 4 1 8 11 4 4 2 4 6 7 6 4 3 3 4 5 5 5 4 7 7 6 5 6 7 3 3 4 5 3 2 2 1 1 0 1 1 1 2 3 4 4 6 6 6 4 0 2 2 1 1 2 1 1 2 2 3 3 3 2 1 1
2 1 4 8 8 7 12 16 16 11 6 5 5 2 4 6 7 8 9 6 3 3 5 6 7 8 5 3 2 5 3 2 2 1 1 0 0 0 1 1 1 2 2 3 3 3 2 2 2 2 2 2 1 0 2 2 3 2 3 2 2 1 1
3 5 3 2 3 8 11 12 14 10 5 5 7 7 8 7 6 8 11 10 6 5 3 1 5 7 6 5 4 5 3 2 2 1 1 1 1 1 1 1 2 2 2 3 2 2 2 2 1 2 1 1 0 1 3 3 3 3 3 2 1 1 1
9 7 3 3 3 7 13 17 15 13 7 5 8 7 4 4 7 6 7 11 11 6 4 2 0 5 6 5 5 5 4 3 3 3 2 2 2 2 2 1 1 1 1 1 2 2 1 0 1 1 1 2 1 2 4 4 5 4 3 2 1 2 3
6 7 8 6 7 10 10 10 12 10 7 5 6 6 6 7 7 6 8 6 6 10 7 5 3 1 6 6 3 4 4 4 3 3 3 3 3 3 3 3 3 2 1 1 1 0 1 1 1 1 1 1 2 3 4 5 5 4 3 2 3 3 2
Wind_Direction
147 141 140 48 309 196 162 154 202 101 39 111 108 119 58 41 317 216 108 273 239 277 260 242 243 243 248 227 224 221 217 201 188 194 191 191 194 194 188 190 188 179 176 180 182 180 177 176 176 182 181 181 172 165 173 171 164 168 169 184 188 202 216
35 334 116 82 35 323 119 211 142 126 279 12 128 194 130 189 249 203 177 241 272 331 239 154 233 240 229 221 210 210 209 197 193 195 190 191 194 194 188 182 178 177 182 181 181 184 182 179 179 184 185 180 174 180 183 175 174 176 180 191 199 204 234
119 217 245 93 60 7 274 41 146 184 155 193 30 132 184 201 229 248 193 264 264 226 256 209 235 226 224 205 198 198 202 204 204 195 192 191 193 187 181 186 180 181 183 183 181 186 186 176 181 192 183 176 178 183 187 184 178 187 176 179 201 204 226
140 260 217 188 109 51 67 124 121 344 280 89 157 161 42 252 189 251 173 200 270 185 220 221 261 230 203 181 195 208 206 206 202 196 190 188 192 194 185 182 183 181 185 189 186 185 183 181 188 199 186 182 193 186 177 182 179 175 184 208 214 243 198
194 186 208 203 162 146 134 171 153 118 58 323 57 75 183 256 183 216 293 256 227 192 204 203 236 222 196 187 197 205 210 210 208 203 192 189 193 191 183 179 177 180 182 184 183 185 182 172 183 196 191 190 193 176 183 192 197 202 213 220 226 241 222
206 189 45 331 255 165 168 172 191 161 142 146 195 180 125 264 207 189 202 259 276 210 157 208 229 231 200 203 200 201 207 205 203 203 203 197 194 189 178 179 179 181 178 174 172 172 168 176 195 200 191 184 189 191 193 199 213 220 229 224 226 240 228
175 27 354 320 290 306 7 299 171 166 124 132 163 239 169 185 100 43 33 304 274 123 164 219 254 248 241 225 210 210 205 205 203 205 205 202 197 182 182 181 182 178 175 172 172 175 178 187 194 192 187 197 195 189 190 203 215 223 231 239 232 230 242
328 175 84 72 68 162 155 69 65 166 185 197 209 209 139 171 129 188 160 242 254 122 153 250 259 260 261 250 226 219 207 204 203 199 197 193 179 171 177 182 178 173 166 154 158 172 178 188 196 198 196 193 191 194 205 210 217 223 224 230 234 228 237
101 54 192 158 136 241 220 177 149 4 84 85 92 97 39 201 198 205 169 256 276 121 91 254 246 246 241 234 230 226 225 209 203 194 190 182 172 167 177 179 173 164 159 166 177 177 183 189 193 195 195 196 196 200 210 220 226 222 224 228 232 235 240
185 184 183 210 204 197 143 130 134 182 161 133 158 166 158 235 144 162 224 248 255 359 300 295 258 268 266 248 236 226 228 224 204 197 188 178 177 180 175 171 170 174 175 174 172 178 186 191 194 194 196 197 198 205 216 222 226 216 221 231 234 237 240
206 200 197 8 84 120 186 181 173 159 133 99 86 77 144 228 158 199 215 245 312 298 256 274 261 220 244 244 214 222 220 221 216 200 187 184 185 178 174 175 174 170 169 174 179 182 188 192 193 194 195 195 199 210 221 219 218 221 220 222 225 231 238
357 74 157 171 279 164 117 145 168 150 159 167 158 190 225 111 119 244 229 178 237 262 266 270 266 248 245 253 244 232 222 211 204 198 181 174 174 174 170 174 176 176 175 174 177 185 189 194 191 193 196 195 203 211 221 218 211 213 215 217 224 229 234
150 21 64 196 135 78 159 157 153 171 171 172 192 213 121 162 227 267 17 167 214 254 247 266 272 264 252 249 245 238 233 194 186 175 180 187 187 181 181 182 179 177 175 175 180 184 190 189 192 197 193 197 207 220 226 217 209 212 212 215 226 232 233
121 128 59 312 160 119 120 133 159 161 168 195 209 175 173 196 229 268 309 186 244 256 276 273 271 302 275 270 276 247 217 209 190 187 189 188 185 183 183 181 182 183 177 175 178 181 184 189 194 193 193 198 206 213 219 213 209 209 196 217 228 232 237
103 58 117 94 71 108 129 122 110 156 170 140 188 257 166 243 285 280 270 268 276 266 226 251 267 281 274 267 247 235 220 196 189 193 194 191 187 184 182 179 182 181 176 174 174 179 186 192 193 193 194 200 204 217 222 212 207 205 202 219 227 235 239
156 54 74 78 79 71 73 123 185 176 172 191 186 215 191 188 228 191 212 259 260 271 213 241 259 261 245 246 238 225 215 207 196 197 196 189 183 182 183 183 180 177 175 172 177 185 190 191 190 190 194 200 203 217 216 211 212 195 201 216 229 233 236
160 64 115 115 105 111 205 222 221 201 188 167 116 352 180 212 192 206 232 254 268 291 16 295 266 232 256 258 256 244 224 212 207 204 196 189 185 183 180 179 182 179 176 178 181 186 187 185 189 198 194 194 206 214 208 211 189 197 210 219 224 235 238
131 120 123 139 170 219 211 106 353 165 194 191 190 201 202 210 188 220 234 277 297 275 252 237 261 270 264 274 288 273 252 214 212 213 201 193 188 185 185 184 180 176 171 170 182 187 186 191 196 195 193 198 210 207 205 189 196 210 214 221 224 237 240
140 132 154 160 220 227 86 53 162 10 41 181 209 215 224 205 217 250 268 263 257 246 247 254 258 265 276 261 262 263 234 221 212 203 199 192 185 185 184 182 178 167 168 173 176 180 195 195 188 185 196 210 215 198 193 201 209 212 218 226 229 235 240
87 163 141 229 229 37 301 262 96 125 90 86 74 272 256 246 227 214 232 246 256 263 261 260 251 253 267 279 262 250 239 210 209 201 200 193 187 187 186 175 173 169 174 178 179 193 197 184 194 196 205 205 203 202 193 205 210 215 223 228 238 239 240
206 163 189 247 36 306 173 160 190 185 186 164 198 270 226 215 200 183 213 239 249 269 269 269 271 247 239 272 251 202 216 203 207 205 202 191 191 188 178 180 176 175 176 169 189 191 178 191 194 199 206 198 198 195 192 208 213 222 223 235 243 242 244
203 158 192 245 232 244 209 234 286 196 305 143 145 215 254 223 217 195 214 239 248 249 246 244 217 198 260 255 233 169 193 192 194 206 206 193 186 182 173 159 146 159 174 192 192 183 191 199 203 202 198 192 189 191 202 206 210 221 224 238 242 245 249
150 185 217 206 225 238 170 223 227 80 121 155 129 211 257 225 219 190 203 230 229 218 199 167 172 200 233 254 350 139 169 182 190 188 190 187 182 169 170 171 174 186 193 192 188 192 199 208 208 203 195 187 184 196 204 209 210 218 227 235 241 242 245
189 187 202 227 195 232 187 250 339 340 160 194 180 259 271 218 206 189 184 217 215 199 189 163 190 209 239 215 50 116 170 173 176 178 166 160 153 170 181 197 196 182 169 158 184 199 206 217 208 193 188 186 190 195 204 206 208 218 228 232 237 245 253
148 198 218 350 263 248 259 279 76 137 167 209 218 232 287 165 199 183 190 215 200 165 169 181 194 221 320 358 45 145 146 150 166 172 170 181 179 178 184 197 195 177 179 187 194 201 209 212 194 182 182 181 190 200 205 205 213 222 226 229 238 251 254
188 189 233 242 306 279 343 103 105 157 155 198 225 234 26 167 206 196 200 206 182 178 179 189 213 138 191 357 105 150 165 171 165 171 171 166 184 204 205 186 181 188 191 207 220 224 225 199 177 174 179 184 197 199 204 214 217 220 217 223 234 248 249
60 113 218 225 256 100 96 118 106 169 245 251 22 345 262 234 259 187 203 212 191 182 189 187 171 159 151 138 156 162 152 155 161 172 171 182 189 191 193 199 204 198 201 212 216 222 211 186 173 179 182 191 200 200 214 220 213 201 198 204 223 239 256
219 162 183 205 126 78 184 204 228 189 230 54 42 1 315 214 249 226 197 216 198 195 176 167 178 176 149 128 154 149 149 148 134 149 161 172 190 203 211 210 206 203 216 224 227 222 187 171 179 181 184 194 199 203 219 213 187 178 181 184 197 241 256
216 197 215 106 113 264 304 260 281 288 297 309 333 280 273 291 253 214 240 214 187 194 182 165 162 156 198 136 154 167 166 158 158 161 173 183 197 206 209 209 176 206 224 230 241 240 207 194 191 191 194 200 198 209 213 176 179 176 158 143 175 240 256
293 274 259 310 302 285 277 245 246 279 289 285 250 266 276 245 260 219 226 194 171 173 172 158 192 181 145 135 145 121 132 137 124 90 114 186 237 252 260 240 214 240 255 262 257 253 227 206 203 198 202 206 200 204 184 172 162 138 128 149 210 246 259
319 213 119 205 301 299 278 276 253 246 254 261 251 239 228 249 225 208 230 184 165 163 166 178 153 139 146 138 137 132 124 140 157 175 194 185 191 219 222 162 133 234 243 252 249 247 250 213 209 208 207 213 212 182 168 148 129 126 141 177 221 235 257
229 288 356 328 301 265 265 279 304 300 269 246 237 241 270 220 158 176 161 142 143 155 165 167 140 141 160 141 137 147 142 141 152 161 171 174 185 206 207 207 214 225 227 240 248 240 242 222 199 212 210 211 209 190 118 114 115 132 165 196 217 216 22
290 265 226 346 332 324 354 322 224 248 275 286 261 243 214 173 145 136 140 161 154 171 159 162 144 128 134 114 132 135 117 105 91 86 108 196 247 252 225 198 201 218 225 236 246 252 261 4 188 219 223 30 27 31 79 96 129 162 175 170 170 126 101
254 77 31 11 1 326 318 319 322 326 308 259 264 197 209 183 155 148 133 120 128 143 154 166 147 135 139 135 121 120 103 110 104 127 141 167 283 346 349 303 273 268 287 290 295 313 20 47 56 81 75 60 351 234 102 107 129 161 160 152 160 138 79
283 321 13 91 258 268 268 285 305 310 301 266 245 216 194 186 176 156 135 128 128 145 161 305 141 138 147 144 134 131 151 144 124 96 124 127 111 79 60 35 13 356 3 7 3 19 47 69 79 78 89 95 129 93 109 121 139 147 153 138 149 111 339
279 278 331 351 297 296 305 308 305 302 285 243 256 262 272 187 162 164 146 145 146 154 155 159 350 136 134 144 157 142 118 109 113 112 91 80 69 76 80 66 91 105 91 51 38 26 40 61 123 181 185 162 153 137 142 147 154 157 157 155 194 231 257
298 322 319 302 277 272 273 281 292 294 290 240 252 255 211 180 173 178 153 149 149 150 153 149 128 121 140 148 151 136 136 117 109 116 126 124 131 139 140 147 157 157 138 107 77 3 315 303 302 290 271 177 183 171 162 163 167 157 159 189 267 294 322